Time,TemperatureF,DewpointF,PressureIn,WindDirection,WindDirectionDegrees,WindSpeedMPH,WindSpeedGustMPH,Humidity,HourlyPrecipIn,Conditions,Clouds,dailyrainin,SoftwareType,DateUTC
2013-02-13 00:04:00,26.4,25.4,29.65,North,0,8.3,-999.0,96,-99.99,,,0.00,Acu-Link.com,2013-02-13 05:04:00,
2013-02-13 00:19:00,26.2,25.2,29.66,SW,225,7.8,-999.0,96,-99.99,,,0.00,Acu-Link.com,2013-02-13 05:19:00,
2013-02-13 00:35:00,26.2,25.5,29.66,West,270,3.7,-999.0,97,-99.99,,,0.00,Acu-Link.com,2013-02-13 05:35:00,
2013-02-13 00:50:00,26.1,25.4,29.66,West,270,4.2,-999.0,97,-99.99,,,0.00,Acu-Link.com,2013-02-13 05:50:00,
2013-02-13 01:05:00,25.9,24.9,29.66,West,270,6.3,-999.0,96,-99.99,,,0.00,Acu-Link.com,2013-02-13 06:05:00,
2013-02-13 01:20:00,25.7,24.7,29.65,WNW,292,3.7,-999.0,96,-99.99,,,0.00,Acu-Link.com,2013-02-13 06:20:00,
2013-02-13 01:35:00,25.5,24.5,29.65,WSW,247,18.1,-999.0,96,-99.99,,,0.00,Acu-Link.com,2013-02-13 06:35:00,
2013-02-13 01:51:00,25.5,24.3,29.64,WNW,292,6.8,-999.0,95,-99.99,,,0.00,Acu-Link.com,2013-02-13 06:51:00,
2013-02-13 02:06:00,25.3,24.1,29.64,SW,225,9.9,-999.0,95,-99.99,,,0.00,Acu-Link.com,2013-02-13 07:06:00,
2013-02-13 02:21:00,25.3,24.3,29.65,West,270,10.9,-999.0,96,-99.99,,,0.00,Acu-Link.com,2013-02-13 07:21:00,
2013-02-13 02:36:00,25.3,24.3,29.65,SW,225,7.3,-999.0,96,-99.99,,,0.00,Acu-Link.com,2013-02-13 07:36:00,
2013-02-13 02:52:00,25.2,24.2,29.66,WSW,247,11.4,-999.0,96,-99.99,,,0.00,Acu-Link.com,2013-02-13 07:52:00,
2013-02-13 03:07:00,25.0,24.0,29.65,NNW,337,9.9,-999.0,96,-99.99,,,0.00,Acu-Link.com,2013-02-13 08:07:00,
2013-02-13 03:22:00,25.0,24.0,29.65,WSW,247,13.5,-999.0,96,-99.99,,,0.00,Acu-Link.com,2013-02-13 08:22:00,
2013-02-13 03:37:00,24.8,23.8,29.65,West,270,7.8,-999.0,96,-99.99,,,0.00,Acu-Link.com,2013-02-13 08:37:00,
2013-02-13 03:52:00,24.8,23.8,29.65,West,270,5.3,-999.0,96,-99.99,,,0.00,Acu-Link.com,2013-02-13 08:52:00,
2013-02-13 04:15:00,24.6,23.6,29.66,West,270,4.7,-999.0,96,-99.99,,,0.00,Acu-Link.com,2013-02-13 09:15:00,
2013-02-13 04:30:00,24.6,23.6,29.67,WSW,247,11.4,-999.0,96,-99.99,,,0.00,Acu-Link.com,2013-02-13 09:30:00,
2013-02-13 04:46:00,24.4,23.4,29.67,West,270,8.9,-999.0,96,-99.99,,,0.00,Acu-Link.com,2013-02-13 09:46:00,
2013-02-13 05:01:00,24.4,23.4,29.67,West,270,10.4,-999.0,96,-99.99,,,0.00,Acu-Link.com,2013-02-13 10:01:00,
2013-02-13 05:16:00,24.3,23.3,29.67,West,270,8.3,-999.0,96,-99.99,,,0.00,Acu-Link.com,2013-02-13 10:16:00,
2013-02-13 05:31:00,24.3,23.6,29.68,WNW,292,10.9,-999.0,97,-99.99,,,0.00,Acu-Link.com,2013-02-13 10:31:00,
2013-02-13 05:46:00,24.1,23.4,29.67,SSW,202,6.8,-999.0,97,-99.99,,,0.00,Acu-Link.com,2013-02-13 10:46:00,
2013-02-13 06:01:00,24.1,23.4,29.67,WNW,292,9.4,-999.0,97,-99.99,,,0.00,Acu-Link.com,2013-02-13 11:01:00,
2013-02-13 06:17:00,24.1,23.4,29.67,WSW,247,6.8,-999.0,97,-99.99,,,0.00,Acu-Link.com,2013-02-13 11:17:00,
2013-02-13 06:32:00,24.1,23.6,29.67,West,270,4.2,-999.0,98,-99.99,,,0.00,Acu-Link.com,2013-02-13 11:32:00,
2013-02-13 06:47:00,24.1,23.6,29.67,West,270,6.8,-999.0,98,-99.99,,,0.00,Acu-Link.com,2013-02-13 11:47:00,
2013-02-13 07:02:00,24.1,23.6,29.67,North,0,3.2,-999.0,98,-99.99,,,0.00,Acu-Link.com,2013-02-13 12:02:00,
2013-02-13 07:17:00,24.1,23.6,29.68,West,270,4.7,-999.0,98,-99.99,,,0.00,Acu-Link.com,2013-02-13 12:17:00,
2013-02-13 07:33:00,24.1,23.6,29.69,SSW,202,3.7,-999.0,98,-99.99,,,0.00,Acu-Link.com,2013-02-13 12:33:00,
2013-02-13 07:48:00,24.1,23.6,29.69,WNW,292,4.7,-999.0,98,-99.99,,,0.00,Acu-Link.com,2013-02-13 12:48:00,
2013-02-13 08:03:00,24.3,23.6,29.69,WSW,247,7.3,-999.0,97,-99.99,,,0.00,Acu-Link.com,2013-02-13 13:03:00,
2013-02-13 08:18:00,24.4,23.4,29.69,WNW,292,4.2,-999.0,96,-99.99,,,0.00,Acu-Link.com,2013-02-13 13:18:00,
2013-02-13 08:34:00,24.6,23.6,29.69,WSW,247,4.7,-999.0,96,-99.99,,,0.00,Acu-Link.com,2013-02-13 13:34:00,
2013-02-13 08:49:00,25.2,24.0,29.69,SW,225,7.3,-999.0,95,-99.99,,,0.00,Acu-Link.com,2013-02-13 13:49:00,
2013-02-13 09:04:00,25.3,23.8,29.69,SW,225,10.4,-999.0,94,-99.99,,,0.00,Acu-Link.com,2013-02-13 14:04:00,
2013-02-13 09:19:00,25.5,23.8,29.68,WSW,247,7.8,-999.0,93,-99.99,,,0.00,Acu-Link.com,2013-02-13 14:19:00,
2013-02-13 09:34:00,25.9,23.9,29.69,WSW,247,8.9,-999.0,92,-99.99,,,0.00,Acu-Link.com,2013-02-13 14:34:00,
2013-02-13 09:50:00,25.9,23.6,29.69,West,270,4.2,-999.0,91,-99.99,,,0.00,Acu-Link.com,2013-02-13 14:50:00,
2013-02-13 10:05:00,26.6,24.1,29.69,NW,315,4.2,-999.0,90,-99.99,,,0.00,Acu-Link.com,2013-02-13 15:05:00,
2013-02-13 10:20:00,26.6,24.1,29.70,WNW,292,7.3,-999.0,90,-99.99,,,0.00,Acu-Link.com,2013-02-13 15:20:00,
2013-02-13 10:35:00,27.3,24.2,29.69,SW,225,7.3,-999.0,88,-99.99,,,0.00,Acu-Link.com,2013-02-13 15:35:00,
2013-02-13 10:50:00,26.4,23.9,29.69,WSW,247,9.4,-999.0,90,-99.99,,,0.00,Acu-Link.com,2013-02-13 15:50:00,
2013-02-13 11:06:00,26.4,23.9,29.69,SW,225,4.7,-999.0,90,-99.99,,,0.00,Acu-Link.com,2013-02-13 16:06:00,
2013-02-13 11:21:00,28.4,24.8,29.69,WSW,247,8.9,-999.0,86,-99.99,,,0.00,Acu-Link.com,2013-02-13 16:21:00,
2013-02-13 11:36:00,27.9,24.0,29.67,SW,225,6.8,-999.0,85,-99.99,,,0.00,Acu-Link.com,2013-02-13 16:36:00,
2013-02-13 11:51:00,27.9,23.7,29.67,WSW,247,8.3,-999.0,84,-99.99,,,0.00,Acu-Link.com,2013-02-13 16:51:00,
2013-02-13 12:07:00,29.8,24.7,29.66,WSW,247,1.7,-999.0,81,-99.99,,,0.00,Acu-Link.com,2013-02-13 17:07:00,
2013-02-13 12:22:00,29.7,24.6,29.66,West,270,4.7,-999.0,81,-99.99,,,0.00,Acu-Link.com,2013-02-13 17:22:00,
2013-02-13 12:37:00,29.1,23.4,29.66,WNW,292,8.3,-999.0,79,-99.99,,,0.00,Acu-Link.com,2013-02-13 17:37:00,
2013-02-13 12:52:00,29.5,23.2,29.66,SW,225,7.3,-999.0,77,-99.99,,,0.00,Acu-Link.com,2013-02-13 17:52:00,
2013-02-13 13:07:00,30.9,23.9,29.66,WSW,247,7.3,-999.0,75,-99.99,,,0.00,Acu-Link.com,2013-02-13 18:07:00,
2013-02-13 13:23:00,29.1,23.1,29.65,SSW,202,6.3,-999.0,78,-99.99,,,0.00,Acu-Link.com,2013-02-13 18:23:00,
2013-02-13 13:38:00,30.2,23.2,29.65,SW,225,4.7,-999.0,75,-99.99,,,0.00,Acu-Link.com,2013-02-13 18:38:00,
2013-02-13 13:53:00,29.8,23.5,29.64,West,270,3.7,-999.0,77,-99.99,,,0.00,Acu-Link.com,2013-02-13 18:53:00,
2013-02-13 14:08:00,29.5,22.9,29.64,SSW,202,9.9,-999.0,76,-99.99,,,0.00,Acu-Link.com,2013-02-13 19:08:00,
2013-02-13 14:23:00,30.6,23.6,29.64,SW,225,6.8,-999.0,75,-99.99,,,0.00,Acu-Link.com,2013-02-13 19:23:00,
2013-02-13 14:39:00,29.8,22.5,29.64,WSW,247,6.8,-999.0,74,-99.99,,,0.00,Acu-Link.com,2013-02-13 19:39:00,
2013-02-13 16:25:00,27.9,22.5,29.64,West,270,1.7,-999.0,80,-99.99,,,0.00,Acu-Link.com,2013-02-13 21:25:00,
2013-02-13 16:41:00,27.7,22.6,29.64,SW,225,2.2,-999.0,81,-99.99,,,0.00,Acu-Link.com,2013-02-13 21:41:00,
2013-02-13 16:56:00,26.8,22.3,29.64,SSW,202,1.7,-999.0,83,-99.99,,,0.00,Acu-Link.com,2013-02-13 21:56:00,
2013-02-13 17:11:00,26.1,22.2,29.64,SW,225,1.7,-999.0,85,-99.99,,,0.00,Acu-Link.com,2013-02-13 22:11:00,
2013-02-13 17:26:00,25.2,22.2,29.64,North,0,1.7,-999.0,88,-99.99,,,0.00,Acu-Link.com,2013-02-13 22:26:00,
2013-02-13 17:42:00,24.8,21.8,29.64,NNW,337,1.1,-999.0,88,-99.99,,,0.00,Acu-Link.com,2013-02-13 22:42:00,
2013-02-13 17:57:00,24.4,21.9,29.64,NNE,22,0.0,-999.0,90,-99.99,,,0.00,Acu-Link.com,2013-02-13 22:57:00,
2013-02-13 18:12:00,24.3,22.1,29.65,NE,45,0.0,-999.0,91,-99.99,,,0.00,Acu-Link.com,2013-02-13 23:12:00,
2013-02-13 18:27:00,23.9,22.2,29.65,West,270,1.7,-999.0,93,-99.99,,,0.00,Acu-Link.com,2013-02-13 23:27:00,
2013-02-13 18:43:00,23.7,22.0,29.66,West,270,1.1,-999.0,93,-99.99,,,0.00,Acu-Link.com,2013-02-13 23:43:00,
2013-02-13 18:58:00,23.5,21.8,29.65,NNW,337,0.0,-999.0,93,-99.99,,,0.00,Acu-Link.com,2013-02-13 23:58:00,
2013-02-13 19:13:00,23.2,21.7,29.65,North,0,0.0,-999.0,94,-99.99,,,0.00,Acu-Link.com,2013-02-14 00:13:00,
2013-02-13 19:28:00,23.0,21.8,29.66,NW,315,1.1,-999.0,95,-99.99,,,0.00,Acu-Link.com,2013-02-14 00:28:00,
2013-02-13 19:44:00,22.8,21.6,29.66,NNW,337,0.0,-999.0,95,-99.99,,,0.00,Acu-Link.com,2013-02-14 00:44:00,
2013-02-13 19:59:00,22.5,21.5,29.66,South,180,0.0,-999.0,96,-99.99,,,0.00,Acu-Link.com,2013-02-14 00:59:00,
2013-02-13 20:14:00,22.1,21.4,29.65,ENE,67,0.0,-999.0,97,-99.99,,,0.00,Acu-Link.com,2013-02-14 01:14:00,
2013-02-13 20:29:00,21.7,21.0,29.66,North,0,0.0,-999.0,97,-99.99,,,0.00,Acu-Link.com,2013-02-14 01:29:00,
2013-02-13 20:44:00,21.7,21.0,29.66,West,270,2.2,-999.0,97,-99.99,,,0.00,Acu-Link.com,2013-02-14 01:44:00,
2013-02-13 21:00:00,21.6,20.9,29.65,ENE,67,0.0,-999.0,97,-99.99,,,0.00,Acu-Link.com,2013-02-14 02:00:00,
2013-02-13 21:15:00,21.4,20.7,29.65,WNW,292,0.0,-999.0,97,-99.99,,,0.00,Acu-Link.com,2013-02-14 02:15:00,
2013-02-13 21:30:00,21.2,20.5,29.66,NNE,22,0.0,-999.0,97,-99.99,,,0.00,Acu-Link.com,2013-02-14 02:30:00,
2013-02-13 21:45:00,21.2,20.7,29.65,NNW,337,0.0,-999.0,98,-99.99,,,0.00,Acu-Link.com,2013-02-14 02:45:00,
2013-02-13 22:00:00,21.2,20.7,29.66,SE,135,0.0,-999.0,98,-99.99,,,0.00,Acu-Link.com,2013-02-14 03:00:00,
2013-02-13 22:16:00,21.0,20.5,29.66,WNW,292,0.0,-999.0,98,-99.99,,,0.00,Acu-Link.com,2013-02-14 03:16:00,
2013-02-13 22:31:00,20.8,20.3,29.66,WSW,247,0.0,-999.0,98,-99.99,,,0.00,Acu-Link.com,2013-02-14 03:31:00,
2013-02-13 22:47:00,20.7,20.5,29.66,West,270,0.0,-999.0,99,-99.99,,,0.00,Acu-Link.com,2013-02-14 03:47:00,
2013-02-13 23:02:00,20.7,20.5,29.66,WNW,292,1.1,-999.0,99,-99.99,,,0.00,Acu-Link.com,2013-02-14 04:02:00,
2013-02-13 23:17:00,20.7,20.5,29.65,WSW,247,0.0,-999.0,99,-99.99,,,0.00,Acu-Link.com,2013-02-14 04:17:00,
2013-02-13 23:32:00,20.5,20.3,29.66,West,270,0.0,-999.0,99,-99.99,,,0.00,Acu-Link.com,2013-02-14 04:32:00,
2013-02-13 23:47:00,20.5,20.3,29.65,West,270,0.0,-999.0,99,-99.99,,,0.00,Acu-Link.com,2013-02-14 04:47:00,